Location: ??????
(42.0089°N, 44.3281°E)
Time: 17:22:57
(UTC+00:00)

Okean 1-7 Rocket - Pass Details

Date: 29 May 2022
Orbit: 616 x 648 km, 82.5° (Epoch: 01 July)

Event Time Altitude Azimuth Distance (km) Brightness Sun altitude
Exits shadow 00:38:12 - 192° (SSW) 2,387 6.1 -8.9°
Reaches altitude 10° 00:39:11 10° 194° (SSW) 1,989 5.7 -8.8°
Maximum altitude 00:43:35 72° 279° (W) 655 3.6 -8.1°
Drops below altitude 10° 00:47:59 10° 4° (N) 1,991 6.8 -7.5°
Sets 00:50:13 0° 6° (N) 2,900 7.7 -7.2°
